M I D A S
Marine Information and Data Acquisition System
Tripno 838 of the Zeeleeuw from 2005-01-14 07:08:01 to 2005-01-14 14:49:40
Back to CruiseResearch ActivitiesStationsMapUnderway DataData graphs

EquipmentUnitsComments
TimeDGPSUTC
LatitudeDGPSDM.mWGS84
LongitudeDGPSDM.mWGS84
SpeedMeteo Stationm/sRelative wind speed
DirectionMeteo StationdegRelative wind direction
TemperatureMeteo Stationdeg CelciusAir temperature
PressureMeteo StationPaAtmospheric pressure
HumidityMeteo Station%Relative humidity
Missing or incorrect values are displayed as -999
Metereological data collected by the RV Zeeleeuw from 2005-01-14 07:09:25 to 2005-01-14 14:56:18
                                                                                    Next 1000 lines
Time Latitude Longitude Speed Direction Temperature Pressure Humidity
2005-01-14 07:09:35 51°13.591 2°56.104 1.2 64 2.1 103020 100
2005-01-14 07:09:41 51°13.592 2°56.1 1 67 2.1 103020 100
2005-01-14 07:09:45 51°13.593 2°56.098 0.8 67 2.1 103020 100
2005-01-14 07:09:51 51°13.594 2°56.093 0.6 67 2.1 103020 100
2005-01-14 07:09:55 51°13.595 2°56.09 0.5 67 2.1 103020 100
2005-01-14 07:10:01 51°13.597 2°56.083 0.4 67 2.1 103020 100
2005-01-14 07:10:06 51°13.599 2°56.078 0.5 69 2.1 103020 100
2005-01-14 07:10:11 51°13.601 2°56.073 0.6 68 2.1 103020 100
2005-01-14 07:10:16 51°13.602 2°56.067 0.5 75 2.1 103020 100
2005-01-14 07:10:21 51°13.605 2°56.06 0.5 92 2.1 103020 100
2005-01-14 07:10:26 51°13.607 2°56.054 0.6 94 2.2 103030 100
2005-01-14 07:10:31 51°13.609 2°56.047 0.9 133 2.2 103030 100
2005-01-14 07:10:35 51°13.611 2°56.041 1.2 131 2.2 103030 100
2005-01-14 07:10:41 51°13.614 2°56.032 1 131 2.2 103030 100
2005-01-14 07:10:46 51°13.616 2°56.025 1 121 2.1 103020 100
2005-01-14 07:10:51 51°13.618 2°56.017 1 122 2.1 103020 100
2005-01-14 07:10:56 51°13.621 2°56.01 1 122 2.2 103030 100
2005-01-14 07:11:01 51°13.623 2°56.002 1 129 2.2 103030 100
2005-01-14 07:11:06 51°13.625 2°55.994 0.9 129 2.2 103030 100
2005-01-14 07:11:11 51°13.628 2°55.987 0.8 129 2.2 103030 100
2005-01-14 07:11:16 51°13.631 2°55.979 0.9 129 2.2 103030 100
2005-01-14 07:11:21 51°13.633 2°55.971 0.7 129 2.2 103030 100
2005-01-14 07:11:26 51°13.636 2°55.963 0.9 132 2.1 103030 100
2005-01-14 07:11:31 51°13.639 2°55.955 1.2 131 2.1 103030 100
2005-01-14 07:11:36 51°13.642 2°55.947 0.8 131 2.2 103030 100
2005-01-14 07:11:41 51°13.645 2°55.938 1 132 2.2 103030 100
2005-01-14 07:11:46 51°13.648 2°55.93 1.3 138 2.2 103030 100
2005-01-14 07:11:51 51°13.652 2°55.921 1.2 146 2.2 103030 100
2005-01-14 07:11:55 51°13.654 2°55.914 1.1 150 2.2 103030 100
2005-01-14 07:12:01 51°13.658 2°55.904 1.1 150 2.2 103030 100
2005-01-14 07:12:06 51°13.662 2°55.896 1 150 2.2 103020 100
2005-01-14 07:12:11 51°13.665 2°55.888 0.9 156 2.2 103020 100
2005-01-14 07:12:15 51°13.668 2°55.882 1 153 2.1 103030 100
2005-01-14 07:12:21 51°13.673 2°55.872 0.8 153 2.1 103030 100
2005-01-14 07:12:26 51°13.677 2°55.864 0.8 153 2.1 103030 100
2005-01-14 07:12:31 51°13.681 2°55.856 0.8 153 2.1 103030 100
2005-01-14 07:12:35 51°13.684 2°55.85 0.7 153 2.1 103030 100
2005-01-14 07:12:41 51°13.688 2°55.84 0.7 152 2.1 103030 100
2005-01-14 07:12:46 51°13.692 2°55.831 0.7 152 2.1 103030 100
2005-01-14 07:12:51 51°13.696 2°55.823 1 148 2.1 103030 100
2005-01-14 07:12:56 51°13.7 2°55.814 1.1 154 2.1 103030 100
2005-01-14 07:13:01 51°13.704 2°55.806 1 157 2.1 103030 100
2005-01-14 07:13:06 51°13.708 2°55.797 1 157 2.1 103030 100
2005-01-14 07:13:11 51°13.712 2°55.789 1 160 2.1 103030 100
2005-01-14 07:13:15 51°13.715 2°55.782 1.4 162 2.1 103030 100
2005-01-14 07:13:21 51°13.721 2°55.772 1.2 162 2.1 103030 100
2005-01-14 07:13:26 51°13.726 2°55.764 1.4 163 2.1 103030 100
2005-01-14 07:13:31 51°13.731 2°55.755 1.1 162 2.1 103030 100
2005-01-14 07:13:36 51°13.735 2°55.747 1.1 164 2.1 103030 100
2005-01-14 07:13:41 51°13.741 2°55.739 1.7 161 2.1 103030 100
2005-01-14 07:13:46 51°13.746 2°55.732 1.7 159 2.1 103030 100
2005-01-14 07:13:51 51°13.752 2°55.724 1.7 165 2.1 103030 100
2005-01-14 07:13:56 51°13.758 2°55.717 1.6 167 2.1 103030 100
2005-01-14 07:14:01 51°13.764 2°55.71 1.6 170 2.1 103030 100
2005-01-14 07:14:06 51°13.77 2°55.703 1.4 167 2.1 103030 100
2005-01-14 07:14:11 51°13.776 2°55.697 1.2 166 2.1 103030 100
2005-01-14 07:14:16 51°13.782 2°55.692 0.9 161 2.1 103030 100
2005-01-14 07:14:21 51°13.787 2°55.688 0.6 164 2.1 103030 100
2005-01-14 07:14:25 51°13.79 2°55.686 0.4 190 2.1 103030 100
2005-01-14 07:14:31 51°13.793 2°55.683 0.6 223 2.1 103030 100
2005-01-14 07:14:35 51°13.795 2°55.681 0.8 276 2.1 103030 100
2005-01-14 07:14:41 51°13.799 2°55.679 0.6 285 2.1 103030 100
2005-01-14 07:14:45 51°13.801 2°55.677 0.4 289 2.1 103030 100
2005-01-14 07:14:50 51°13.803 2°55.675 0.8 317 2.1 103030 100
2005-01-14 07:14:55 51°13.804 2°55.674 1.6 344 2.1 103020 100
2005-01-14 07:15:01 51°13.804 2°55.674 1.9 350 2.1 103020 100
2005-01-14 07:15:05 51°13.803 2°55.674 1.6 350 2.2 103030 100
2005-01-14 07:15:10 51°13.803 2°55.674 1.3 350 2.2 103030 100
2005-01-14 07:15:15 51°13.805 2°55.672 0.8 350 2.2 103030 100
2005-01-14 07:15:21 51°13.807 2°55.67 0.6 350 2.2 103030 100
2005-01-14 07:15:25 51°13.809 2°55.669 0.3 350 2.2 103030 100
2005-01-14 07:15:31 51°13.813 2°55.666 0.2 350 2.2 103030 100
2005-01-14 07:15:36 51°13.817 2°55.663 0.4 331 2.2 103030 100
2005-01-14 07:15:41 51°13.822 2°55.66 0.5 323 2.2 103030 100
2005-01-14 07:15:46 51°13.827 2°55.658 0.6 293 2.2 103030 100
2005-01-14 07:15:51 51°13.833 2°55.655 0.9 234 2.2 103030 100
2005-01-14 07:15:55 51°13.838 2°55.653 1.2 216 2.2 103020 100
2005-01-14 07:16:01 51°13.846 2°55.65 1.1 215 2.2 103020 100
2005-01-14 07:16:06 51°13.853 2°55.647 1.3 206 2.2 103030 100
2005-01-14 07:16:11 51°13.86 2°55.645 1.2 204 2.2 103030 100
2005-01-14 07:16:15 51°13.866 2°55.643 1.1 205 2.2 103030 100
2005-01-14 07:16:21 51°13.875 2°55.641 1.2 210 2.2 103030 100
2005-01-14 07:16:26 51°13.883 2°55.639 1.2 211 2.2 103030 100
2005-01-14 07:16:31 51°13.891 2°55.638 1.2 210 2.2 103030 100
2005-01-14 07:16:36 51°13.899 2°55.638 1.2 213 2.2 103030 100
2005-01-14 07:16:42 51°13.909 2°55.638 1.4 216 2.2 103030 100
2005-01-14 07:16:46 51°13.915 2°55.639 1.7 219 2.2 103030 100
2005-01-14 07:16:51 51°13.923 2°55.64 1.6 223 2.2 103030 100
2005-01-14 07:16:56 51°13.93 2°55.642 1.8 224 2.2 103030 100
2005-01-14 07:17:01 51°13.938 2°55.645 1.9 226 2.2 103030 100
2005-01-14 07:17:06 51°13.945 2°55.649 2.1 225 2.2 103030 100
2005-01-14 07:17:11 51°13.951 2°55.653 2.5 219 2.2 103030 100
2005-01-14 07:17:15 51°13.956 2°55.656 2.3 219 2.2 103030 100
2005-01-14 07:17:21 51°13.963 2°55.661 2.2 226 2.2 103030 100
2005-01-14 07:17:26 51°13.968 2°55.665 1.7 227 2.2 103030 100
2005-01-14 07:17:31 51°13.971 2°55.669 1.7 229 2.2 103030 100
2005-01-14 07:17:35 51°13.974 2°55.671 1.1 246 2.2 103030 100
2005-01-14 07:17:41 51°13.976 2°55.673 1.1 248 2.2 103030 100
2005-01-14 07:17:45 51°13.977 2°55.673 1.1 253 2.2 103030 100
2005-01-14 07:17:49 51°13.977 2°55.672 1.7 269 2.2 103030 100
2005-01-14 07:17:55 51°13.976 2°55.669 1.7 270 2.2 103030 100
2005-01-14 07:18:01 51°13.976 2°55.664 1.4 282 2.2 103030 100
2005-01-14 07:18:05 51°13.976 2°55.66 1.4 297 2.2 103030 100
2005-01-14 07:18:11 51°13.976 2°55.652 1.4 304 2.2 103030 100
2005-01-14 07:18:15 51°13.976 2°55.646 1.2 305 2.2 103020 100
2005-01-14 07:18:21 51°13.978 2°55.636 1.4 310 2.2 103020 100
2005-01-14 07:18:25 51°13.98 2°55.628 1.4 312 2.2 103030 100
2005-01-14 07:18:29 51°13.982 2°55.62 1.5 227 2.2 103030 100
2005-01-14 07:18:34 51°13.986 2°55.61 1.7 328 2.2 103020 100
2005-01-14 07:18:41 51°13.992 2°55.594 1.8 335 2.2 103020 100
2005-01-14 07:18:45 51°13.995 2°55.584 1.9 343 2.2 103020 100
2005-01-14 07:18:50 51°14.001 2°55.572 1.2 346 2.2 103020 100
2005-01-14 07:18:55 51°14.007 2°55.561 2.2 348 2.3 103020 100
2005-01-14 07:19:01 51°14.015 2°55.546 1.9 348 2.3 103020 100
2005-01-14 07:19:05 51°14.02 2°55.537 2 350 2.3 103020 100
2005-01-14 07:19:10 51°14.028 2°55.525 2.2 353 2.3 103020 100
2005-01-14 07:19:15 51°14.036 2°55.513 2.1 354 2.3 103020 100
2005-01-14 07:19:21 51°14.046 2°55.499 2.5 356 2.3 103020 100
2005-01-14 07:19:25 51°14.053 2°55.49 2.4 3 2.3 103020 100
2005-01-14 07:19:31 51°14.064 2°55.477 2.6 6 2.3 103020 100
2005-01-14 07:19:35 51°14.072 2°55.469 2.8 10 2.3 103020 100
2005-01-14 07:19:41 51°14.084 2°55.456 2.4 7 2.3 103020 100
2005-01-14 07:19:45 51°14.092 2°55.448 2.6 13 2.3 103030 100
2005-01-14 07:19:50 51°14.103 2°55.438 2.7 10 2.3 103030 100
2005-01-14 07:19:54 51°14.112 2°55.43 2.4 13 2.4 103030 100
2005-01-14 07:20:01 51°14.127 2°55.415 2.7 12 2.4 103030 100
2005-01-14 07:20:05 51°14.136 2°55.407 2.5 16 2.4 103020 100
2005-01-14 07:20:11 51°14.149 2°55.394 2.4 12 2.4 103020 100
2005-01-14 07:20:15 51°14.158 2°55.385 2.3 12 2.4 103030 100
2005-01-14 07:20:21 51°14.172 2°55.372 2.7 14 2.4 103030 100
2005-01-14 07:20:25 51°14.181 2°55.363 2.5 6 2.4 103030 100
2005-01-14 07:20:30 51°14.192 2°55.351 2.3 5 2.4 103030 100
2005-01-14 07:20:35 51°14.202 2°55.338 2.5 3 2.4 103030 100
2005-01-14 07:20:41 51°14.215 2°55.322 2.3 4 2.4 103030 100
2005-01-14 07:20:45 51°14.223 2°55.311 2.3 360 2.4 103020 100
2005-01-14 07:20:49 51°14.231 2°55.299 2.3 356 2.4 103020 100
2005-01-14 07:20:55 51°14.243 2°55.281 2.5 354 2.4 103030 100
2005-01-14 07:21:01 51°14.255 2°55.263 2.5 351 2.4 103030 100
2005-01-14 07:21:05 51°14.263 2°55.25 2.7 350 2.5 103030 100
2005-01-14 07:21:10 51°14.272 2°55.233 2.4 347 2.5 103030 100
2005-01-14 07:21:15 51°14.282 2°55.216 2.9 346 2.5 103020 100
2005-01-14 07:21:21 51°14.293 2°55.195 3 347 2.5 103020 100
2005-01-14 07:21:25 51°14.3 2°55.18 2.7 346 2.5 103030 100
2005-01-14 07:21:31 51°14.311 2°55.158 2.9 348 2.5 103030 100
2005-01-14 07:21:35 51°14.319 2°55.143 3.4 350 2.5 103020 100
2005-01-14 07:21:41 51°14.331 2°55.12 3.7 352 2.5 103020 100
2005-01-14 07:21:45 51°14.34 2°55.105 3.3 352 2.5 103020 100
2005-01-14 07:21:51 51°14.352 2°55.083 2.9 356 2.5 103020 100
2005-01-14 07:21:55 51°14.362 2°55.069 3.2 353 2.5 103020 100
2005-01-14 07:22:01 51°14.375 2°55.047 3.3 357 2.5 103020 100
2005-01-14 07:22:06 51°14.387 2°55.029 3.3 355 2.6 103010 100
2005-01-14 07:22:11 51°14.398 2°55.01 3.5 352 2.6 103010 100
2005-01-14 07:22:15 51°14.407 2°54.994 3.5 351 2.6 103020 100
2005-01-14 07:22:21 51°14.42 2°54.97 3.7 351 2.6 103020 100
2005-01-14 07:22:25 51°14.428 2°54.953 3.8 348 2.6 103020 100
2005-01-14 07:22:31 51°14.441 2°54.927 3.9 339 2.6 103020 100
2005-01-14 07:22:35 51°14.449 2°54.908 3.4 345 2.7 103020 100
2005-01-14 07:22:41 51°14.462 2°54.883 3.7 347 2.7 103020 100
2005-01-14 07:22:45 51°14.471 2°54.866 3.9 350 2.7 103020 100
2005-01-14 07:22:49 51°14.48 2°54.851 3.8 351 2.7 103020 100
2005-01-14 07:22:54 51°14.493 2°54.832 3.1 354 2.8 103020 100
2005-01-14 07:23:01 51°14.511 2°54.807 3.4 352 2.8 103020 100
2005-01-14 07:23:05 51°14.521 2°54.793 3.2 354 2.8 103020 100
2005-01-14 07:23:10 51°14.535 2°54.776 3.4 354 2.8 103020 100
2005-01-14 07:23:15 51°14.548 2°54.759 3.3 353 2.8 103010 100
2005-01-14 07:23:21 51°14.565 2°54.738 3.4 354 2.8 103010 100
2005-01-14 07:23:25 51°14.577 2°54.725 3.3 355 2.9 103020 100
2005-01-14 07:23:30 51°14.591 2°54.707 3.9 354 2.9 103020 100
2005-01-14 07:23:35 51°14.605 2°54.689 3.7 356 2.9 103020 100
2005-01-14 07:23:41 51°14.622 2°54.668 4 353 2.9 103020 100
2005-01-14 07:23:45 51°14.633 2°54.653 4.1 354 2.9 103020 100
2005-01-14 07:23:50 51°14.648 2°54.635 3.8 356 2.9 103020 100
2005-01-14 07:23:55 51°14.662 2°54.616 4.2 355 3 103020 100
2005-01-14 07:24:01 51°14.679 2°54.594 4.1 354 3 103020 100
2005-01-14 07:24:05 51°14.691 2°54.579 3.9 353 3 103020 100
2005-01-14 07:24:11 51°14.709 2°54.556 3.6 353 3 103020 100
2005-01-14 07:24:15 51°14.721 2°54.541 3.6 351 3.1 103020 100
2005-01-14 07:24:21 51°14.738 2°54.52 4 356 3.1 103020 100
2005-01-14 07:24:25 51°14.75 2°54.505 3.8 355 3.1 103020 100
2005-01-14 07:24:29 51°14.763 2°54.492 3.5 355 3.1 103020 100
2005-01-14 07:24:35 51°14.781 2°54.471 3.4 355 3.2 103020 100
2005-01-14 07:24:41 51°14.8 2°54.45 3.6 354 3.2 103020 100
2005-01-14 07:24:45 51°14.812 2°54.437 3.6 356 3.2 103020 100
2005-01-14 07:24:51 51°14.831 2°54.417 3.9 356 3.2 103020 100
2005-01-14 07:24:55 51°14.844 2°54.403 4.2 357 3.2 103010 100
2005-01-14 07:25:01 51°14.863 2°54.383 3.6 359 3.2 103010 100
2005-01-14 07:25:05 51°14.875 2°54.369 4 4 3.3 103020 100
2005-01-14 07:25:10 51°14.891 2°54.352 4.2 1 3.3 103020 100
2005-01-14 07:25:15 51°14.906 2°54.335 4.2 357 3.3 103020 100
2005-01-14 07:25:21 51°14.925 2°54.315 4.4 4 3.3 103020 100
2005-01-14 07:25:25 51°14.937 2°54.301 4.3 2 3.3 103010 100
2005-01-14 07:25:31 51°14.954 2°54.281 4.3 2 3.3 103010 100
2005-01-14 07:25:35 51°14.967 2°54.267 4.4 6 3.4 103020 100
2005-01-14 07:25:41 51°14.985 2°54.246 4.4 1 3.4 103020 100
2005-01-14 07:25:45 51°14.996 2°54.232 4.9 3 3.4 103020 100
2005-01-14 07:25:50 51°15.012 2°54.215 4.8 3 3.4 103020 100
2005-01-14 07:25:55 51°15.026 2°54.197 4.6 5 3.5 103020 100
2005-01-14 07:26:01 51°15.044 2°54.176 3.9 2 3.5 103020 100
2005-01-14 07:26:05 51°15.056 2°54.162 4.1 1 3.5 103010 100
2005-01-14 07:26:10 51°15.072 2°54.144 4.6 6 3.5 103010 100
2005-01-14 07:26:15 51°15.087 2°54.127 4.7 2 3.6 103020 100
2005-01-14 07:26:21 51°15.105 2°54.106 4.3 360 3.6 103020 100
2005-01-14 07:26:25 51°15.118 2°54.093 4.4 4 3.6 103010 100
2005-01-14 07:26:31 51°15.137 2°54.073 4.4 1 3.6 103010 100
2005-01-14 07:26:35 51°15.15 2°54.06 4.4 1 3.7 103020 100
2005-01-14 07:26:41 51°15.169 2°54.04 4.1   3.7 103020 100
2005-01-14 07:26:45 51°15.182 2°54.026 4.1 3 3.7 103020 100
2005-01-14 07:26:49 51°15.194 2°54.012 4.5 3 3.7 103020 100
2005-01-14 07:26:55 51°15.213 2°53.991 4.8 3 3.7 102970 100
2005-01-14 07:27:01 51°15.232 2°53.97 5.2 4 3.7 102970 100
2005-01-14 07:27:05 51°15.244 2°53.956 5.2 7 3.8 102970 100
2005-01-14 07:27:10 51°15.26 2°53.938 4.8 10 3.8 102970 100
2005-01-14 07:27:15 51°15.276 2°53.919 4.8 7 3.8 102970 100
2005-01-14 07:27:21 51°15.294 2°53.898 5.7 8 3.8 102970 100
2005-01-14 07:27:25 51°15.307 2°53.884 5.5 9 3.9 102970 100
2005-01-14 07:27:30 51°15.324 2°53.868 5.6 5 3.9 102970 100
2005-01-14 07:27:35 51°15.341 2°53.852 5.8 7 3.9 102970 100
2005-01-14 07:27:41 51°15.361 2°53.834 6 8 3.9 102970 100
2005-01-14 07:27:45 51°15.375 2°53.823 5.5 9 4 102970 100
2005-01-14 07:27:50 51°15.392 2°53.809 6 8 4 102970 100
2005-01-14 07:27:55 51°15.409 2°53.795 6.1 8 4 102980 100
2005-01-14 07:28:01 51°15.43 2°53.778 5.9 8 4 102980 100
2005-01-14 07:28:05 51°15.444 2°53.766 5.5 8 4 102970 100
2005-01-14 07:28:11 51°15.464 2°53.748 6.4 9 4 102970 100
2005-01-14 07:28:15 51°15.477 2°53.735 5.9 8 4.1 102970 100
2005-01-14 07:28:21 51°15.498 2°53.716 5.6 10 4.1 102970 100
2005-01-14 07:28:25 51°15.511 2°53.703 5.6 14 4.1 102970 100
2005-01-14 07:28:30 51°15.527 2°53.688 5.7 14 4.1 102970 100
2005-01-14 07:28:35 51°15.544 2°53.672 6.1 17 4.1 102970 100
2005-01-14 07:28:41 51°15.564 2°53.653 5.9 13 4.1 102970 100
2005-01-14 07:28:45 51°15.578 2°53.641 6.2 11 4.2 102980 100
2005-01-14 07:28:49 51°15.591 2°53.629 5.9 10 4.2 102980 100
2005-01-14 07:28:55 51°15.611 2°53.61 5.9 8 4.2 102970 100
2005-01-14 07:29:01 51°15.632 2°53.592 5.6 10 4.2 102970 100
2005-01-14 07:29:05 51°15.645 2°53.579 5.3 12 4.2 102970 100
2005-01-14 07:29:09 51°15.658 2°53.567 5.5 13 4.2 102970 100
2005-01-14 07:29:15 51°15.678 2°53.548 5.1 15 4.2 102970 100
2005-01-14 07:29:21 51°15.698 2°53.529 5.2 12 4.2 102970 100
2005-01-14 07:29:25 51°15.711 2°53.517 5.7 16 4.3 102970 100
2005-01-14 07:29:31 51°15.732 2°53.498 5.3 7 4.3 102970 100
2005-01-14 07:29:35 51°15.745 2°53.486 5.3 11 4.3 102970 100
2005-01-14 07:29:41 51°15.765 2°53.466 4.3 14 4.3 102970 100
2005-01-14 07:29:45 51°15.778 2°53.454 4.1 10 4.3 102970 100
2005-01-14 07:29:50 51°15.795 2°53.439 4.3 14 4.3 102970 100
2005-01-14 07:29:55 51°15.812 2°53.424 4.3 12 4.3 102970 100
2005-01-14 07:30:01 51°15.831 2°53.406 4.9 10 4.3 102970 100
2005-01-14 07:30:05 51°15.844 2°53.393 4.8 12 4.4 102970 100
2005-01-14 07:30:11 51°15.865 2°53.375 4.9 10 4.4 102970 100
2005-01-14 07:30:15 51°15.878 2°53.363 4.6 12 4.4 102970 100
2005-01-14 07:30:21 51°15.898 2°53.345 4.4 14 4.4 102970 100
2005-01-14 07:30:25 51°15.911 2°53.333 5 11 4.4 102970 100
2005-01-14 07:30:31 51°15.932 2°53.315 4.8 11 4.4 102970 100
2005-01-14 07:30:35 51°15.945 2°53.303 4.7 10 4.4 102970 100
2005-01-14 07:30:41 51°15.965 2°53.284 4.4 13 4.4 102970 100
2005-01-14 07:30:45 51°15.979 2°53.273 5 11 4.4 102970 100
2005-01-14 07:30:49 51°15.992 2°53.261 4.9 14 4.4 102970 100
2005-01-14 07:30:55 51°16.012 2°53.243 5 13 4.4 102970 100
2005-01-14 07:31:01 51°16.033 2°53.226 4.8 13 4.4 102970 100
2005-01-14 07:31:05 51°16.046 2°53.215 5 15 4.4 102970 100
2005-01-14 07:31:09 51°16.06 2°53.204 5.1 15 4.4 102970 100
2005-01-14 07:31:15 51°16.08 2°53.186 4.7 21 4.5 102970 100
2005-01-14 07:31:21 51°16.1 2°53.169 5.2 17 4.5 102970 100
2005-01-14 07:31:25 51°16.114 2°53.157 4.9 19 4.5 102970 100
2005-01-14 07:31:30 51°16.131 2°53.144 5 19 4.5 102970 100
2005-01-14 07:31:35 51°16.149 2°53.131 5.1 18 4.5 102970 100
2005-01-14 07:31:41 51°16.17 2°53.116 5.6 19 4.5 102970 100
2005-01-14 07:31:45 51°16.184 2°53.105 5.4 19 4.5 102970 100
2005-01-14 07:31:50 51°16.201 2°53.093 5 19 4.5 102970 100
2005-01-14 07:31:55 51°16.219 2°53.08 5.1 17 4.5 102970 100
2005-01-14 07:32:01 51°16.24 2°53.065 5.7 20 4.5 102970 100
2005-01-14 07:32:05 51°16.254 2°53.055 5.1 21 4.6 102980 100
2005-01-14 07:32:11 51°16.275 2°53.039 5.2 17 4.6 102980 100
2005-01-14 07:32:15 51°16.288 2°53.029 5.2 18 4.6 102970 100
2005-01-14 07:32:21 51°16.309 2°53.013 5.4 20 4.6 102970 100
2005-01-14 07:32:25 51°16.323 2°53.003 5.4 19 4.6 102980 100
2005-01-14 07:32:30 51°16.34 2°52.991 5 15 4.6 102980 100
2005-01-14 07:32:34 51°16.354 2°52.981 5.2 22 4.7 102970 100
2005-01-14 07:32:41 51°16.379 2°52.967 5.4 12 4.7 102970 100
2005-01-14 07:32:45 51°16.394 2°52.96 5.4 19 4.7 102970 100
2005-01-14 07:32:49 51°16.408 2°52.954 5.3 28 4.7 102970 100
2005-01-14 07:32:56 51°16.434 2°52.947 5.1 15 4.7 102970 100
2005-01-14 07:33:01 51°16.452 2°52.945 5.9 18 4.7 102970 100
2005-01-14 07:33:06 51°16.471 2°52.941 5.2 27 4.8 102970 100
2005-01-14 07:33:10 51°16.486 2°52.94 5.7 22 4.8 102970 100
2005-01-14 07:33:15 51°16.505 2°52.938 5.4 26 4.8 102980 100
2005-01-14 07:33:21 51°16.527 2°52.936 5.5 24 4.8 102980 100
2005-01-14 07:33:25 51°16.542 2°52.935 5.8 24 4.9 102970 100
2005-01-14 07:33:29 51°16.557 2°52.933 5.6 26 4.9 102970 100
2005-01-14 07:33:34 51°16.576 2°52.932 5.3 21 4.9 102970 100
2005-01-14 07:33:41 51°16.602 2°52.932 5.7 28 4.9 102970 100
2005-01-14 07:33:45 51°16.617 2°52.932 5.6 28 4.9 102970 100
2005-01-14 07:33:50 51°16.636 2°52.934 5.6 29 4.9 102970 100
2005-01-14 07:33:54 51°16.651 2°52.937 5.8 27 4.9 102970 100
2005-01-14 07:34:00 51°16.673 2°52.942 6.2 30 4.9 102970 100
2005-01-14 07:34:05 51°16.691 2°52.948 5.9 30 4.9 102970 100
2005-01-14 07:34:11 51°16.712 2°52.956 6.4 29 4.9 102970 100
2005-01-14 07:34:15 51°16.727 2°52.962 6.5 31 4.9 102970 100
2005-01-14 07:34:21 51°16.748 2°52.971 5.8 29 4.9 102970 100
2005-01-14 07:34:25 51°16.762 2°52.977 6.2 31 5 102970 100
2005-01-14 07:34:31 51°16.784 2°52.986 5.8 26 5 102970 100
2005-01-14 07:34:35 51°16.798 2°52.992 5.5 29 5 102970 100
2005-01-14 07:34:41 51°16.819 2°53.001 6 29 5 102970 100
2005-01-14 07:34:45 51°16.833 2°53.007 6 28 5 102960 100
2005-01-14 07:34:51 51°16.853 2°53.016 6.2 35 5 102960 100
2005-01-14 07:34:55 51°16.867 2°53.02 5.8 32 5 102970 100
2005-01-14 07:35:01 51°16.886 2°53.029 5.7 27 5 102970 100
2005-01-14 07:35:05 51°16.9 2°53.034 5.7 30 5 102970 100
2005-01-14 07:35:11 51°16.92 2°53.043 5.4 28 5 102970 100
2005-01-14 07:35:15 51°16.933 2°53.049 5.6 31 5 102970 100
2005-01-14 07:35:21 51°16.954 2°53.058 5.4 34 5 102970 100
2005-01-14 07:35:25 51°16.967 2°53.064 5.5 28 5 102960 100
2005-01-14 07:35:31 51°16.988 2°53.071 5.4 30 5 102960 100
2005-01-14 07:35:35 51°17.002 2°53.076 5.6 28 5 102960 100
2005-01-14 07:35:41 51°17.023 2°53.083 6 31 5 102960 100
2005-01-14 07:35:45 51°17.037 2°53.086 5.5 30 5 102970 100
2005-01-14 07:35:50 51°17.054 2°53.09 5.7 29 5 102970 100
2005-01-14 07:35:55 51°17.072 2°53.095 5 30 5 102970 100
2005-01-14 07:36:01 51°17.093 2°53.1 5.3 30 5 102970 100
2005-01-14 07:36:05 51°17.108 2°53.103 5.2 32 5 102970 100
2005-01-14 07:36:10 51°17.126 2°53.109 5.7 31 5 102970 100
2005-01-14 07:36:13 51°17.136 2°53.112 6.3 31 5 102970 100
2005-01-14 07:36:21 51°17.165 2°53.122 5.9 34 5 102970 100
2005-01-14 07:36:25 51°17.18 2°53.129 5.6 33 5 102970 100
2005-01-14 07:36:30 51°17.198 2°53.136 6 35 5 102970 100
2005-01-14 07:36:36 51°17.219 2°53.147 5.5 33 5 102960 100
2005-01-14 07:36:41 51°17.236 2°53.159 6.6 29 5 102960 100
2005-01-14 07:36:45 51°17.248 2°53.17 6.9 35 5 102960 100
2005-01-14 07:36:50 51°17.263 2°53.186 7.2 31 5 102960 100
2005-01-14 07:36:55 51°17.277 2°53.204 7 35 5 102960 100
2005-01-14 07:37:01 51°17.293 2°53.226 7.2 36 5 102960 100
2005-01-14 07:37:05 51°17.304 2°53.242 7.1 35 5 102970 100
2005-01-14 07:37:11 51°17.319 2°53.266 7.1 33 5 102970 100
2005-01-14 07:37:15 51°17.329 2°53.282 6.9 36 5 102960 100
2005-01-14 07:37:21 51°17.343 2°53.306 7.2 34 5 102960 100
2005-01-14 07:37:25 51°17.354 2°53.322 7.3 32 5 102960 100
2005-01-14 07:37:30 51°17.368 2°53.341 6.8 36 5 102960 100
2005-01-14 07:37:35 51°17.381 2°53.36 6.9 35 5 102960 100
2005-01-14 07:37:41 51°17.398 2°53.382 7 33 5 102960 100
2005-01-14 07:37:45 51°17.409 2°53.397 7.2 36 5 102960 100
2005-01-14 07:37:49 51°17.42 2°53.411 6.9 33 5 102960 100
2005-01-14 07:37:53 51°17.432 2°53.425 7.1 37 5 102960 100
2005-01-14 07:38:01 51°17.454 2°53.454 6.4 38 5 102960 100
2005-01-14 07:38:05 51°17.464 2°53.47 6.7 34 5 103020 100
2005-01-14 07:38:10 51°17.477 2°53.49 7.2 34 5 103020 100
2005-01-14 07:38:15 51°17.489 2°53.512 7 34 5 102960 100
2005-01-14 07:38:20 51°17.5 2°53.535 7.3 32 5 102960 100
2005-01-14 07:38:25 51°17.51 2°53.558 7.5 34 5 102960 100
2005-01-14 07:38:31 51°17.522 2°53.587 7.6 33 5 102960 100
2005-01-14 07:38:35 51°17.53 2°53.606 7.7 33 5 102970 100
2005-01-14 07:38:41 51°17.541 2°53.634 7.8 34 5 102970 100
2005-01-14 07:38:45 51°17.549 2°53.654 7.5 34 5 102960 100
2005-01-14 07:38:51 51°17.562 2°53.682 7.8 37 5 102960 100
2005-01-14 07:38:56 51°17.573 2°53.704 7.2 36 5 102960 100
2005-01-14 07:39:01 51°17.583 2°53.727 7.3 31 5 102960 100
2005-01-14 07:39:05 51°17.592 2°53.745 7.4 34 5 102960 100
2005-01-14 07:39:11 51°17.605 2°53.772 6.9 29 5 102960 100
2005-01-14 07:39:15 51°17.614 2°53.79 7.6 30 5 102960 100
2005-01-14 07:39:21 51°17.628 2°53.816 7.2 34 5 102960 100
2005-01-14 07:39:25 51°17.636 2°53.834 7.3 30 5.1 102950 100
2005-01-14 07:39:30 51°17.647 2°53.857 7.2 35 5.1 102950 100
2005-01-14 07:39:35 51°17.658 2°53.88 7.5 28 5.1 102950 100
2005-01-14 07:39:41 51°17.671 2°53.907 7.3 34 5.1 102950 100
2005-01-14 07:39:45 51°17.68 2°53.926 7.2 29 5.1 102960 100
2005-01-14 07:39:51 51°17.692 2°53.953 7.4 29 5.1 102960 100
2005-01-14 07:39:55 51°17.7 2°53.971 8 35 5.1 102960 100
2005-01-14 07:40:01 51°17.712 2°54 7.6 31 5.1 102960 100
2005-01-14 07:40:06 51°17.723 2°54.023 7.2 36 5.1 102970 100
2005-01-14 07:40:11 51°17.733 2°54.046 7.4 32 5.1 102970 100
2005-01-14 07:40:15 51°17.742 2°54.064 7.1 32 5.1 102960 100
2005-01-14 07:40:21 51°17.755 2°54.092 7.2 34 5.1 102960 100
2005-01-14 07:40:25 51°17.763 2°54.111 7.3 29 5.1 102960 100
2005-01-14 07:40:29 51°17.772 2°54.128 7.4 38 5.1 102960 100
2005-01-14 07:40:34 51°17.783 2°54.15 7.6 35 5.1 102970 100
2005-01-14 07:40:41 51°17.798 2°54.182 7.6 36 5.1 102970 100
2005-01-14 07:40:45 51°17.807 2°54.2 7.5 31 5.2 102950 100
2005-01-14 07:40:50 51°17.818 2°54.223 7.4 36 5.2 102950 100
2005-01-14 07:40:55 51°17.829 2°54.246 7.2 29 5.2 102970 100
2005-01-14 07:41:01 51°17.842 2°54.273 7.3 32 5.2 102970 100
2005-01-14 07:41:06 51°17.853 2°54.295 7.6 35 5.2 102960 100
2005-01-14 07:41:11 51°17.863 2°54.319 7.4 32 5.2 102960 100
2005-01-14 07:41:15 51°17.872 2°54.337 7.9 34 5.2 102970 100
2005-01-14 07:41:21 51°17.885 2°54.365 7.7 34 5.2 102970 100
2005-01-14 07:41:25 51°17.893 2°54.384 7.3 33 5.2 102970 100
2005-01-14 07:41:31 51°17.906 2°54.411 7.6   5.2 102970 100
2005-01-14 07:41:35 51°17.914 2°54.43 7.2 31 5.2 102960 100
2005-01-14 07:41:41 51°17.926 2°54.458 7.6 34 5.2 102960 100
2005-01-14 07:41:45 51°17.934 2°54.477 7.2 34 5.2 102970 100
2005-01-14 07:41:50 51°17.945 2°54.499 7.3 35 5.2 102970 100
2005-01-14 07:41:55 51°17.955 2°54.522 7.7 33 5.2 102960 100
2005-01-14 07:42:01 51°17.968 2°54.549 7.5 34 5.2 102960 100
2005-01-14 07:42:05 51°17.977 2°54.567 7.4 37 5.2 102960 100
2005-01-14 07:42:09 51°17.985 2°54.586 7.3 30 5.2 102960 100
2005-01-14 07:42:15 51°17.998 2°54.614 7.6 36 5.2 102970 100
2005-01-14 07:42:21 51°18.012 2°54.64 7.8 37 5.2 102970 100
2005-01-14 07:42:25 51°18.02 2°54.659 7 34 5.2 102960 100
2005-01-14 07:42:31 51°18.033 2°54.686 7.4   5.2 102960 100
2005-01-14 07:42:35 51°18.042 2°54.704 7.4 31 5.2 102970 100
2005-01-14 07:42:41 51°18.054 2°54.732 7.4 34 5.2 102970 100
2005-01-14 07:42:45 51°18.063 2°54.75 7.3 35 5.2 102970 100
2005-01-14 07:42:51 51°18.075 2°54.778 7 30 5.2 102970 100
2005-01-14 07:42:55 51°18.083 2°54.796 7.8 36 5.2 102970 100
2005-01-14 07:43:01 51°18.096 2°54.825 7.2 31 5.2 102970 100
2005-01-14 07:43:05 51°18.103 2°54.844 7 34 5.2 102980 100
2005-01-14 07:43:10 51°18.114 2°54.866 7.4 36 5.2 102980 100
2005-01-14 07:43:15 51°18.125 2°54.889 7.5 32 5.2 102970 100
2005-01-14 07:43:21 51°18.138 2°54.916 7.8 32 5.2 102970 100
2005-01-14 07:43:25 51°18.146 2°54.934 7.5 36 5.2 102970 100
2005-01-14 07:43:30 51°18.157 2°54.957 7.6 34 5.2 102970 100
2005-01-14 07:43:35 51°18.168 2°54.98 7.9 36 5.2 102980 100
2005-01-14 07:43:41 51°18.182 2°55.007 7.5 32 5.2 102980 100
2005-01-14 07:43:45 51°18.191 2°55.026 7.4 35 5.2 102970 100
2005-01-14 07:43:50 51°18.202 2°55.047 7.1 34 5.2 102970 100
2005-01-14 07:43:54 51°18.21 2°55.065 7.6 34 5.2 102970 100
2005-01-14 07:44:01 51°18.225 2°55.098 8 31 5.2 102970 100
2005-01-14 07:44:05 51°18.233 2°55.116 7.4 30 5.2 102970 100
2005-01-14 07:44:10 51°18.244 2°55.139 7.9 34 5.2 102970 100
2005-01-14 07:44:15 51°18.256 2°55.161 7.7 36 5.2 102970 100
2005-01-14 07:44:21 51°18.27 2°55.187 7.4 34 5.2 102970 100
2005-01-14 07:44:25 51°18.28 2°55.204 7.2 33 5.2 102980 100
2005-01-14 07:44:31 51°18.295 2°55.229 7.2   5.2 102980 100
2005-01-14 07:44:35 51°18.305 2°55.245 7 35 5.2 102970 100
2005-01-14 07:44:41 51°18.32 2°55.271 7.2 27 5.2 102970 100
2005-01-14 07:44:45 51°18.33 2°55.287 7.4 39 5.2 102970 100
2005-01-14 07:44:51 51°18.345 2°55.312 7.2 34 5.2 102970 100
2005-01-14 07:44:55 51°18.354 2°55.329 7.1 34 5.3 102980 100
2005-01-14 07:45:01 51°18.369 2°55.355 7.1 33 5.3 102980 100
2005-01-14 07:45:05 51°18.379 2°55.371 7.3 34 5.2 102970 100
2005-01-14 07:45:09 51°18.389 2°55.389 7.7 33 5.2 102970 100
2005-01-14 07:45:15 51°18.403 2°55.415 7.8 33 5.3 102970 100
2005-01-14 07:45:21 51°18.418 2°55.44 6.8 34 5.3 102970 100
2005-01-14 07:45:25 51°18.427 2°55.458 7.3 31 5.3 102970 100
2005-01-14 07:45:31 51°18.441 2°55.484 7.3   5.3 102970 100
2005-01-14 07:45:35 51°18.451 2°55.501 7.2 31 5.3 102970 100
2005-01-14 07:45:41 51°18.466 2°55.526 7.5 32 5.3 102970 100
2005-01-14 07:45:45 51°18.476 2°55.544 7.3 33 5.3 102980 100
2005-01-14 07:45:50 51°18.488 2°55.564 7.3 30 5.3 102980 100
2005-01-14 07:45:55 51°18.501 2°55.585 7.3 34 5.3 102970 100
2005-01-14 07:46:01 51°18.515 2°55.61 7.3 31 5.3 102970 100
2005-01-14 07:46:05 51°18.525 2°55.627 7.3 32 5.3 102970 100
2005-01-14 07:46:11 51°18.54 2°55.652 7.5 32 5.3 102970 100
2005-01-14 07:46:15 51°18.55 2°55.67 7 31 5.3 102980 100
2005-01-14 07:46:21 51°18.565 2°55.695 6.8 31 5.3 102980 100
2005-01-14 07:46:25 51°18.575 2°55.712 7.1 36 5.3 102970 100
2005-01-14 07:46:31 51°18.589 2°55.738 7.1   5.3 102970 100
2005-01-14 07:46:35 51°18.599 2°55.755 7 33 5.3 102980 100
2005-01-14 07:46:41 51°18.614 2°55.781 6.9 30 5.3 102980 100
2005-01-14 07:46:45 51°18.624 2°55.798 6.9 34 5.3 102970 100
2005-01-14 07:46:49 51°18.634 2°55.816 7 37 5.3 102970 100
2005-01-14 07:46:55 51°18.648 2°55.841 7.4 33 5.3 102980 100
2005-01-14 07:47:01 51°18.663 2°55.866 7 37 5.3 102980 100
2005-01-14 07:47:05 51°18.673 2°55.884 7.2 33 5.3 102970 100
2005-01-14 07:47:10 51°18.685 2°55.905 6.7 31 5.3 102970 100
2005-01-14 07:47:15 51°18.698 2°55.927 7.6 38 5.3 102970 100
2005-01-14 07:47:21 51°18.713 2°55.953 6.8 32 5.3 102970 100
2005-01-14 07:47:26 51°18.724 2°55.974 7.1 36 5.3 102970 100
2005-01-14 07:47:29 51°18.732 2°55.986 7.1 34 5.3 102970 100
2005-01-14 07:47:35 51°18.746 2°56.013 6.8 34 5.3 102980 100
2005-01-14 07:47:41 51°18.76 2°56.039 7.1 37 5.3 102980 100
2005-01-14 07:47:45 51°18.77 2°56.056 6.5 34 5.3 102980 100
2005-01-14 07:47:50 51°18.781 2°56.079 6.4 35 5.3 102980 100
2005-01-14 07:47:55 51°18.793 2°56.1 6.6 30 5.3 102980 100
2005-01-14 07:48:01 51°18.806 2°56.127 6.7 35 5.3 102980 100
2005-01-14 07:48:05 51°18.816 2°56.144 7 33 5.3 102970 100
2005-01-14 07:48:11 51°18.83 2°56.171 6.8 33 5.3 102970 100
2005-01-14 07:48:15 51°18.839 2°56.188 7 36 5.3 102960 100
2005-01-14 07:48:21 51°18.853 2°56.215 7 33 5.3 102960 100
2005-01-14 07:48:25 51°18.862 2°56.232 7.3 36 5.3 102970 100
2005-01-14 07:48:31 51°18.876 2°56.259 6.8   5.3 102970 100
2005-01-14 07:48:35 51°18.886 2°56.277 7.1 34 5.3 102970 100
2005-01-14 07:48:41 51°18.899 2°56.303 6.9 33 5.3 102970 100
2005-01-14 07:48:45 51°18.909 2°56.321 7 33 5.3 102970 100
2005-01-14 07:48:51 51°18.923 2°56.347 6.5 34 5.3 102970 100
2005-01-14 07:48:55 51°18.932 2°56.365 6.8 36 5.3 102970 100
2005-01-14 07:49:01 51°18.946 2°56.391 6.3 31 5.3 102970 100
2005-01-14 07:49:05 51°18.955 2°56.41 6.7 28 5.3 102970 100
2005-01-14 07:49:09 51°18.965 2°56.427 6.8 36 5.3 102970 100
2005-01-14 07:49:15 51°18.979 2°56.452 6.7 36 5.3 102970 100
2005-01-14 07:49:21 51°18.993 2°56.479 6.8 33 5.3 102970 100
2005-01-14 07:49:25 51°19.002 2°56.496 6.9 36 5.3 102970 99
2005-01-14 07:49:31 51°19.015 2°56.524 7.3   5.3 102970 99
2005-01-14 07:49:35 51°19.024 2°56.543 6.9 37 5.3 102980 99
2005-01-14 07:49:41 51°19.037 2°56.57 7 38 5.3 102980 99
2005-01-14 07:49:45 51°19.046 2°56.588 6.9 37 5.3 102980 99
2005-01-14 07:49:51 51°19.058 2°56.616 6.8 36 5.3 102980 99
2005-01-14 07:49:55 51°19.067 2°56.634 6.8 34 5.3 102970 99
2005-01-14 07:50:01 51°19.079 2°56.662 6.9 30 5.3 102970 99
2005-01-14 07:50:05 51°19.088 2°56.68 7.2 33 5.3 102970 99
2005-01-14 07:50:10 51°19.099 2°56.703 6.9 33 5.3 102970 99
2005-01-14 07:50:15 51°19.11 2°56.726 7.3 33 5.3 102970 99
2005-01-14 07:50:21 51°19.123 2°56.753 6.9 41 5.3 102970 99
2005-01-14 07:50:25 51°19.131 2°56.771 6.8 32 5.4 102970 99
2005-01-14 07:50:30 51°19.143 2°56.794 7.2 42 5.4 102970 99
2005-01-14 07:50:35 51°19.153 2°56.816 6.8 35 5.4 102970 99
2005-01-14 07:50:41 51°19.167 2°56.844 6.9 36 5.4 102970 99
2005-01-14 07:50:45 51°19.174 2°56.862 6.8 28 5.4 102970 99
2005-01-14 07:50:50 51°19.185 2°56.886 6.9 39 5.4 102970 99
2005-01-14 07:50:54 51°19.194 2°56.904 6.7 38 5.4 102980 99
2005-01-14 07:51:01 51°19.209 2°56.936 7 37 5.4 102980 99
2005-01-14 07:51:05 51°19.217 2°56.955 6.8 36 5.4 102970 98
2005-01-14 07:51:10 51°19.227 2°56.978 7 39 5.4 102970 98
2005-01-14 07:51:15 51°19.237 2°57.001 7.3 32 5.4 102980 98
2005-01-14 07:51:21 51°19.249 2°57.03 6.9 39 5.4 102980 98
2005-01-14 07:51:25 51°19.257 2°57.049 7.1 34 5.4 102970 98
2005-01-14 07:51:30 51°19.266 2°57.073 7 35 5.4 102970 98
2005-01-14 07:51:34 51°19.274 2°57.093 7.1 38 5.4 102980 98
2005-01-14 07:51:41 51°19.287 2°57.127 6.9 35 5.4 102980 98
2005-01-14 07:51:45 51°19.294 2°57.146 7.5 33 5.4 102970 98
2005-01-14 07:51:49 51°19.302 2°57.165 7.1 34 5.4 102970 98
2005-01-14 07:51:55 51°19.312 2°57.195 7.2 33 5.4 102970 98
2005-01-14 07:52:01 51°19.323 2°57.224 7.2 40 5.4 102970 98
2005-01-14 07:52:05 51°19.331 2°57.243 7 36 5.4 102970 97
2005-01-14 07:52:11 51°19.341 2°57.273 7.1 37 5.4 102970 97
2005-01-14 07:52:15 51°19.348 2°57.293 7.1 35 5.4 102980 97
2005-01-14 07:52:21 51°19.36 2°57.321 6.9 37 5.4 102980 97
2005-01-14 07:52:25 51°19.367 2°57.34 7.2 38 5.5 102980 97
2005-01-14 07:52:29 51°19.375 2°57.36 6.7 36 5.5 102980 97
2005-01-14 07:52:35 51°19.386 2°57.389 7.1 39 5.5 102970 97
2005-01-14 07:52:41 51°19.398 2°57.417 7.4 45 5.5 102970 97
2005-01-14 07:52:45 51°19.405 2°57.436 6.9 35 5.5 102970 97
2005-01-14 07:52:50 51°19.415 2°57.46 6.9 37 5.5 102970 97
2005-01-14 07:52:55 51°19.425 2°57.484 7 38 5.5 102970 96
2005-01-14 07:53:01 51°19.436 2°57.513 6.8 34 5.5 102970 96
2005-01-14 07:53:05 51°19.443 2°57.532 7.4 43 5.5 102980 96
2005-01-14 07:53:10 51°19.452 2°57.556 7.2 38 5.5 102980 96
2005-01-14 07:53:15 51°19.462 2°57.58 6.8 37 5.5 102980 96
2005-01-14 07:53:21 51°19.472 2°57.609 6.7 36 5.5 102980 96
2005-01-14 07:53:25 51°19.479 2°57.629 7.1 41 5.5 102970 96
2005-01-14 07:53:31 51°19.49 2°57.658 7.2   5.5 102970 96
2005-01-14 07:53:35 51°19.497 2°57.678 7 35 5.5 102980 95
2005-01-14 07:53:41 51°19.507 2°57.708 7.6 42 5.5 102980 95
2005-01-14 07:53:45 51°19.514 2°57.728 7.1 36 5.5 102970 95
2005-01-14 07:53:51 51°19.524 2°57.757 7.1 35 5.5 102970 95
2005-01-14 07:53:55 51°19.531 2°57.777 7.4 42 5.6 102980 95
2005-01-14 07:54:01 51°19.541 2°57.806 7.2 39 5.6 102980 95
2005-01-14 07:54:05 51°19.548 2°57.826 6.9 40 5.6 102980 95
2005-01-14 07:54:09 51°19.554 2°57.846 6.9 41 5.6 102980 95
2005-01-14 07:54:15 51°19.565 2°57.875 7.6 42 5.6 102970 94
2005-01-14 07:54:21 51°19.575 2°57.904 7 38 5.6 102970 94
2005-01-14 07:54:25 51°19.581 2°57.924 6.8 36 5.6 102980 94
2005-01-14 07:54:30 51°19.59 2°57.949 7 40 5.6 102980 94
2005-01-14 07:54:35 51°19.598 2°57.973 7.3 44 5.6 102980 94
2005-01-14 07:54:41 51°19.609 2°58.003 7.4 38 5.6 102980 94
2005-01-14 07:54:45 51°19.616 2°58.022 7.2 37 5.6 102970 94
2005-01-14 07:54:49 51°19.623 2°58.041 6.9 38 5.6 102970 94
2005-01-14 07:54:55 51°19.633 2°58.071 7 34 5.6 102980 93
2005-01-14 07:55:01 51°19.642 2°58.101 7.4 38 5.6 102980 93
2005-01-14 07:55:05 51°19.65 2°58.12 7 39 5.6 102980 93
2005-01-14 07:55:11 51°19.659 2°58.15 6.9 34 5.6 102980 93
2005-01-14 07:55:15 51°19.665 2°58.17 7.1 38 5.6 102980 93
2005-01-14 07:55:21 51°19.675 2°58.199 6.9 36 5.6 102980 93
2005-01-14 07:55:25 51°19.682 2°58.218 7.7 46 5.6 102980 93
2005-01-14 07:55:31 51°19.691 2°58.249 7.1   5.6 102980 93
2005-01-14 07:55:35 51°19.697 2°58.27 7.4 38 5.6 102980 93
2005-01-14 07:55:41 51°19.706 2°58.3 7.4 34 5.6 102980 93
2005-01-14 07:55:45 51°19.711 2°58.321 7.5 36 5.6 102980 93
2005-01-14 07:55:51 51°19.718 2°58.352 8.1 37 5.6 102980 93
2005-01-14 07:55:55 51°19.724 2°58.373 7.8 40 5.6 102960 92
2005-01-14 07:56:01 51°19.731 2°58.403 8 34 5.6 102960 92
2005-01-14 07:56:05 51°19.736 2°58.424 7.5 39 5.6 102980 92
2005-01-14 07:56:09 51°19.74 2°58.445 7.7 39 5.6 102980 92
2005-01-14 07:56:15 51°19.747 2°58.476 7.3 36 5.7 102980 92
2005-01-14 07:56:21 51°19.755 2°58.508 7.7 39 5.7 102980 92
2005-01-14 07:56:25 51°19.76 2°58.529 7.6 33 5.7 102970 92
2005-01-14 07:56:31 51°19.767 2°58.56 7.5 36 5.7 102970 92
2005-01-14 07:56:36 51°19.773 2°58.586 8 40 5.7 102970 92
2005-01-14 07:56:41 51°19.779 2°58.611 8.1 44 5.7 102970 92
2005-01-14 07:56:45 51°19.782 2°58.633 7.2 31 5.7 102980 92
2005-01-14 07:56:51 51°19.789 2°58.664 7.3 31 5.7 102980 92
2005-01-14 07:56:55 51°19.794 2°58.685 8.1 43 5.7 102980 92
2005-01-14 07:57:01 51°19.8 2°58.716 8.6 37 5.7 102980 92
2005-01-14 07:57:05 51°19.805 2°58.737 8 34 5.7 102970 91
2005-01-14 07:57:10 51°19.81 2°58.764 7.8 37 5.7 102970 91
2005-01-14 07:57:15 51°19.815 2°58.79 7.9 40 5.7 102980 91
2005-01-14 07:57:21 51°19.822 2°58.822 8.1 36 5.7 102980 91
2005-01-14 07:57:25 51°19.826 2°58.843 7.9 34 5.7 102970 91
2005-01-14 07:57:31 51°19.833 2°58.874 8 35 5.7 102970 91
2005-01-14 07:57:35 51°19.838 2°58.895 8 40 5.7 102970 91
2005-01-14 07:57:41 51°19.845 2°58.926 7.9 39 5.7 102970 91
2005-01-14 07:57:45 51°19.849 2°58.946 7.7 35 5.7 102970 91
2005-01-14 07:57:51 51°19.857 2°58.977 8 36 5.7 102970 91
2005-01-14 07:57:55 51°19.861 2°58.998 8.3 35 5.7 102980 91
2005-01-14 07:58:01 51°19.869 2°59.029 8.5 37 5.7 102980 91
2005-01-14 07:58:05 51°19.873 2°59.05 8.1 33 5.7 102970 90
2005-01-14 07:58:10 51°19.879 2°59.076 8.3 39 5.7 102970 90
2005-01-14 07:58:15 51°19.885 2°59.102 8.1 36 5.7 102970 90
2005-01-14 07:58:21 51°19.892 2°59.133 8 40 5.7 102970 90
2005-01-14 07:58:25 51°19.897 2°59.154 8.2 40 5.7 102980 90
2005-01-14 07:58:31 51°19.904 2°59.186 7.8 33 5.7 102980 90
2005-01-14 07:58:35 51°19.909 2°59.207 8 35 5.7 102980 90
2005-01-14 07:58:41 51°19.915 2°59.238 7.7 36 5.7 102980 90
2005-01-14 07:58:45 51°19.92 2°59.259 7.8 40 5.7 102970 90
2005-01-14 07:58:51 51°19.926 2°59.29 7.8 35 5.7 102970 90
2005-01-14 07:58:55 51°19.931 2°59.311 8 35 5.7 102970 90
2005-01-14 07:59:01 51°19.937 2°59.342 7.8 35 5.7 102970 90
2005-01-14 07:59:05 51°19.941 2°59.363 8 34 5.7 102970 90
2005-01-14 07:59:11 51°19.949 2°59.394 7.7 35 5.7 102970 90
2005-01-14 07:59:15 51°19.953 2°59.416 7.5 29 5.7 102970 90
2005-01-14 07:59:21 51°19.96 2°59.446 8.1 36 5.7 102970 90
2005-01-14 07:59:25 51°19.965 2°59.467 8.3 33 5.7 102980 90
2005-01-14 07:59:30 51°19.971 2°59.493 8.4 35 5.7 102980 90
2005-01-14 07:59:35 51°19.977 2°59.519 8.1 33 5.7 102970 90
2005-01-14 07:59:41 51°19.984 2°59.55 7.8 30 5.7 102970 90
2005-01-14 07:59:45 51°19.989 2°59.571 7.6 34 5.7 103030 90
2005-01-14 07:59:51 51°19.996 2°59.602 7.9 34 5.7 103030 90
2005-01-14 07:59:55 51°20 2°59.623 7.9 33 5.7 103020 90
2005-01-14 08:00:01 51°20.007 2°59.654 8 30 5.7 103020 90
2005-01-14 08:00:05 51°20.012 2°59.675 7.9 30 5.6 102970 90
2005-01-14 08:00:09 51°20.017 2°59.696 7.8 35 5.6 102970 90
2005-01-14 08:00:16 51°20.025 2°59.733 7.9 32 5.6 102970 90
2005-01-14 08:00:21 51°20.03 2°59.759 8 31 5.6 102970 90
2005-01-14 08:00:25 51°20.035 2°59.779 8.1 30 5.6 102980 90
2005-01-14 08:00:31 51°20.041 2°59.811 8.3 28 5.6 102980 90
2005-01-14 08:00:35 51°20.046 2°59.832 8.1 36 5.6 102980 90
2005-01-14 08:00:41 51°20.052 2°59.863 7.9 29 5.6 102980 90
2005-01-14 08:00:45 51°20.056 2°59.884 8.2 32 5.6 102970 90
2005-01-14 08:00:51 51°20.062 2°59.915 8.1 33 5.6 102970 90
2005-01-14 08:00:55 51°20.067 2°59.936 8 35 5.5 102970 90
2005-01-14 08:01:01 51°20.073 2°59.967 8 28 5.5 102970 90
2005-01-14 08:01:05 51°20.078 2°59.988 8 32 5.5 102970 90
2005-01-14 08:01:10 51°20.084 3°0.014 7.7 31 5.5 102970 90
2005-01-14 08:01:16 51°20.091 3°0.045 7.6 35 5.5 102970 90
2005-01-14 08:01:21 51°20.097 3°0.07 7.7 36 5.5 102970 90
2005-01-14 08:01:26 51°20.103 3°0.096 7.9 34 5.5 102980 90
2005-01-14 08:01:31 51°20.11 3°0.122 8 28 5.5 102980 90
2005-01-14 08:01:35 51°20.115 3°0.142 7.6 29 5.4 102980 90
2005-01-14 08:01:41 51°20.121 3°0.173 7.7 30 5.4 102980 90
2005-01-14 08:01:45 51°20.126 3°0.194 7.7 31 5.4 102970 90
2005-01-14 08:01:51 51°20.133 3°0.225 7.9 38 5.4 102970 90
2005-01-14 08:01:55 51°20.138 3°0.246 7.9 30 5.4 102970 90
2005-01-14 08:02:01 51°20.144 3°0.277 7.5 32 5.4 102970 90
2005-01-14 08:02:05 51°20.148 3°0.297 7.7 33 5.4 102970 90
2005-01-14 08:02:09 51°20.152 3°0.318 7.8 29 5.4 102970 90
2005-01-14 08:02:15 51°20.159 3°0.349 7.7 32 5.3 102980 90
2005-01-14 08:02:21 51°20.165 3°0.381 7.7 34 5.3 102980 90
2005-01-14 08:02:25 51°20.169 3°0.401 8 32 5.3 102980 90
2005-01-14 08:02:31 51°20.176 3°0.432 8.1 37 5.3 102980 90
2005-01-14 08:02:36 51°20.181 3°0.459 7.9 30 5.3 102980 90
2005-01-14 08:02:41 51°20.185 3°0.485 8.1 33 5.3 102980 90
2005-01-14 08:02:45 51°20.189 3°0.506 8.1 32 5.2 102980 90
2005-01-14 08:02:51 51°20.193 3°0.538 7.6 33 5.2 102980 90
2005-01-14 08:02:55 51°20.196 3°0.559 7.8 31 5.2 102980 90
2005-01-14 08:03:01 51°20.201 3°0.591 8.3 35 5.2 102980 90
2005-01-14 08:03:05 51°20.204 3°0.613 7.9 34 5.2 102980 90
2005-01-14 08:03:10 51°20.207 3°0.64 8.1 35 5.2 102980 90
2005-01-14 08:03:16 51°20.212 3°0.671 8.1 30 5.2 102980 90
2005-01-14 08:03:21 51°20.215 3°0.698 8.5 33 5.2 102980 90
2005-01-14 08:03:26 51°20.22 3°0.724 7.9 35 5.1 102970 90
2005-01-14 08:03:30 51°20.223 3°0.745 8 33 5.1 102970 90
2005-01-14 08:03:35 51°20.228 3°0.771 8.3 37 5.1 102970 90
2005-01-14 08:03:41 51°20.234 3°0.802 7.7 33 5.1 102970 90
2005-01-14 08:03:46 51°20.239 3°0.828 7.8 34 5.1 102980 91
2005-01-14 08:03:50 51°20.244 3°0.848 7.4 36 5.1 102980 91
2005-01-14 08:03:55 51°20.248 3°0.874 7.2 31 5.1 102970 91
2005-01-14 08:04:01 51°20.254 3°0.905 8.2 34 5.1 102970 91
2005-01-14 08:04:05 51°20.258 3°0.926 8 34 5.1 102970 91
2005-01-14 08:04:11 51°20.263 3°0.957 8.1 41 5.1 102970 91
2005-01-14 08:04:15 51°20.268 3°0.978 8.1 36 5.1 102980 91
2005-01-14 08:04:21 51°20.272 3°1.009 8 34 5.1 102980 91
2005-01-14 08:04:25 51°20.275 3°1.03 8.5 34 5 103020 91
2005-01-14 08:04:29 51°20.278 3°1.052 8 32 5 103020 91
2005-01-14 08:04:35 51°20.283 3°1.083 8.2 34 5 102980 91
2005-01-14 08:04:41 51°20.288 3°1.114 7.9 33 5 102980 91
2005-01-14 08:04:45 51°20.29 3°1.135 7.8 33 5 102970 91
2005-01-14 08:04:49 51°20.294 3°1.156 8.1 39 5 102970 91
2005-01-14 08:04:56 51°20.3 3°1.193 8.4 38 5 102980 91
2005-01-14 08:05:01 51°20.303 3°1.219 7.9 36 5 102980 91
2005-01-14 08:05:05 51°20.306 3°1.24 8.1 35 5 102980 91
2005-01-14 08:05:10 51°20.311 3°1.266 8.1 34 5 102980 91
2005-01-14 08:05:15 51°20.315 3°1.292 7.5 36 5 102980 91
2005-01-14 08:05:21 51°20.321 3°1.322 7.7 34 5 102980 91
2005-01-14 08:05:25 51°20.324 3°1.343 7.6 32 5 102970 91
2005-01-14 08:05:31 51°20.33 3°1.374 8.3 39 5 102970 91
2005-01-14 08:05:35 51°20.334 3°1.394 7.7 37 5 103020 91
2005-01-14 08:05:41 51°20.34 3°1.425 7.5 36 5 103020 91
2005-01-14 08:05:45 51°20.344 3°1.446 8.3 41 5 102980 91
2005-01-14 08:05:51 51°20.349 3°1.476 8 34 5 102980 91
2005-01-14 08:05:56 51°20.353 3°1.503 7.8 37 4.9 102970 91
2005-01-14 08:06:01 51°20.357 3°1.528 8.5 37 4.9 102970 91
2005-01-14 08:06:05 51°20.359 3°1.549 8.1 30 4.9 103030 91
2005-01-14 08:06:09 51°20.361 3°1.57 8.6 37 4.9 103030 91
2005-01-14 08:06:15 51°20.365 3°1.602 7.7 35 4.9 102970 91
2005-01-14 08:06:20 51°20.368 3°1.628 7.8 33 4.9 102970 91
2005-01-14 08:06:25 51°20.372 3°1.654 8.2 39 4.9 102980 91
2005-01-14 08:06:31 51°20.378 3°1.684 7.8 36 4.9 102980 91
2005-01-14 08:06:35 51°20.381 3°1.705 7.4 39 4.9 102970 91
2005-01-14 08:06:41 51°20.387 3°1.735 8.4 39 4.9 102970 91
2005-01-14 08:06:45 51°20.392 3°1.755 8.1 38 4.9 102970 92
2005-01-14 08:06:51 51°20.399 3°1.785 7.4 36 4.9 102970 92
2005-01-14 08:06:55 51°20.403 3°1.805 7.9 38 4.9 102980 91
2005-01-14 08:07:01 51°20.41 3°1.834 7.6 38 4.9 102980 91
2005-01-14 08:07:05 51°20.415 3°1.854 7.8 36 4.8 102980 91
2005-01-14 08:07:09 51°20.419 3°1.874 7.7 33 4.8 102980 91
2005-01-14 08:07:15 51°20.425 3°1.904 7.6 37 4.8 102980 92
2005-01-14 08:07:21 51°20.431 3°1.934 8.5 37 4.8 102980 92
2005-01-14 08:07:25 51°20.434 3°1.955 8 33 4.8 102980 92
2005-01-14 08:07:30 51°20.438 3°1.98 8.1 36 4.8 102980 92
2005-01-14 08:07:35 51°20.441 3°2.007 8 35 4.8 102990 92
2005-01-14 08:07:41 51°20.445 3°2.037 8 34 4.8 102990 92
2005-01-14 08:07:45 51°20.448 3°2.057 8.2 36 4.8 102980 92
2005-01-14 08:07:51 51°20.453 3°2.087 8.1 35 4.8 102980 92
2005-01-14 08:07:54 51°20.455 3°2.103 8 35 4.8 102980 92
2005-01-14 08:08:01 51°20.461 3°2.139 8.2 39 4.8 102980 92
2005-01-14 08:08:05 51°20.465 3°2.158 7.9 39 4.8 102970 92
2005-01-14 08:08:11 51°20.471 3°2.187 7.7 40 4.8 102970 92
2005-01-14 08:08:15 51°20.475 3°2.207 7.5 39 4.8 102980 92
2005-01-14 08:08:21 51°20.481 3°2.237 8 44 4.8 102980 92
2005-01-14 08:08:26 51°20.487 3°2.262 8 42 4.8 102980 92
2005-01-14 08:08:31 51°20.492 3°2.287 8   4.8 102980 92
2005-01-14 08:08:35 51°20.496 3°2.307 8.5 43 4.8 102970 92
2005-01-14 08:08:41 51°20.503 3°2.337 8 39 4.8 102970 92
2005-01-14 08:08:45 51°20.506 3°2.357 8.3 45 4.8 102980 92
2005-01-14 08:08:50 51°20.51 3°2.382 7.9 47 4.8 102980 92
2005-01-14 08:08:55 51°20.514 3°2.404 7.2 44 4.7 102970 92
2005-01-14 08:09:01 51°20.517 3°2.43 7.8 46 4.7 102970 92
2005-01-14 08:09:05 51°20.518 3°2.448 7.4 44 4.7 102980 93
2005-01-14 08:09:10 51°20.519 3°2.468 7.2 44 4.7 102980 93
2005-01-14 08:09:15 51°20.521 3°2.486 6.3 50 4.7 103010 93
2005-01-14 08:09:21 51°20.523 3°2.505 5.8 51 4.7 103010 93
2005-01-14 08:09:25 51°20.525 3°2.516 5.5 63 4.7 103030 93
2005-01-14 08:09:31 51°20.529 3°2.53 5.1 60 4.7 103030 93
2005-01-14 08:09:36 51°20.532 3°2.541 3.8 73 4.7 103030 93
2005-01-14 08:09:41 51°20.536 3°2.55 4.5 80 4.7 103030 93
2005-01-14 08:09:45 51°20.54 3°2.555 4 91 4.7 103020 93
2005-01-14 08:09:50 51°20.544 3°2.563 4 91 4.7 103020 93
2005-01-14 08:09:53 51°20.547 3°2.566 4.2 94 4.7 103020 93
2005-01-14 08:10:01 51°20.553 3°2.574 3.2 84 4.7 103020 93
2005-01-14 08:10:05 51°20.556 3°2.578 3.5 86 4.8 103030 93
2005-01-14 08:10:10 51°20.56 3°2.583 3.5 90 4.8 103030 93
2005-01-14 08:10:15 51°20.564 3°2.586 3.8 95 4.7 103030 93
2005-01-14 08:10:21 51°20.569 3°2.59 3 90 4.7 103030 93
2005-01-14 08:10:25 51°20.572 3°2.591 3.8 105 4.8 103020 93
2005-01-14 08:10:31 51°20.576 3°2.593 2.5 110 4.8 103020 93
2005-01-14 08:10:35 51°20.578 3°2.595 3 115 4.8 103030 94
2005-01-14 08:10:41 51°20.582 3°2.594 2.2 127 4.8 103030 94
2005-01-14 08:10:45 51°20.585 3°2.595 2.9 132 4.8 103030 94
2005-01-14 08:10:51 51°20.589 3°2.593 2.6 138 4.8 103030 94
2005-01-14 08:10:55 51°20.591 3°2.593 2.4 141 4.8 103030 94
2005-01-14 08:11:01 51°20.594 3°2.591 2.5 141 4.8 103030 94
2005-01-14 08:11:05 51°20.596 3°2.589 2.5 151 4.8 103040 94
2005-01-14 08:11:09 51°20.598 3°2.587 2.4 155 4.8 103040 94
2005-01-14 08:11:15 51°20.6 3°2.583 3 159 4.8 103040 94
2005-01-14 08:11:21 51°20.602 3°2.58 2.5 165 4.8 103040 94
2005-01-14 08:11:25 51°20.604 3°2.577 2.7 168 4.8 103040 94
2005-01-14 08:11:30 51°20.605 3°2.574 2.8 169 4.8 103040 94
2005-01-14 08:11:35 51°20.606 3°2.57 2.8 177 4.8 103040 94
2005-01-14 08:11:41 51°20.608 3°2.566 2.2 177 4.8 103040 94
2005-01-14 08:11:46 51°20.609 3°2.563 2.2 186 4.8 103040 94
2005-01-14 08:11:51 51°20.61 3°2.559 2 181 4.8 103040 94
2005-01-14 08:11:55 51°20.611 3°2.556 2 189 4.8 103040 94
2005-01-14 08:12:01 51°20.612 3°2.552 2 191 4.8 103040 94
2005-01-14 08:12:05 51°20.612 3°2.549 1.9 195 4.8 103040 94
2005-01-14 08:12:09 51°20.613 3°2.546 1.6 190 4.8 103040 94
2005-01-14 08:12:15 51°20.613 3°2.542 1.7 183 4.8 103050 94
2005-01-14 08:12:21 51°20.613 3°2.538 1.6 185 4.8 103050 94
2005-01-14 08:12:25 51°20.613 3°2.535 1.5 194 4.8 103050 94
2005-01-14 08:12:31 51°20.613 3°2.531 2.1 204 4.8 103050 94
2005-01-14 08:12:35 51°20.614 3°2.528 2.6 205 4.9 103040 95
2005-01-14 08:12:41 51°20.614 3°2.524 2.1 186 4.9 103040 95
2005-01-14 08:12:45 51°20.614 3°2.521 3.2 210 4.9 103050 95
2005-01-14 08:12:50 51°20.615 3°2.518 2.7 207 4.9 103050 95
2005-01-14 08:12:55 51°20.615 3°2.514 3.8 210 4.9 103040 95
2005-01-14 08:13:01 51°20.615 3°2.509 3.9 215 4.9 103040 95
2005-01-14 08:13:05 51°20.615 3°2.506 3.6 214 4.9 103040 95
2005-01-14 08:13:11 51°20.616 3°2.502 4.1 219 4.9 103040 95
2005-01-14 08:13:15 51°20.616 3°2.499 4.4 220 4.9 103040 95
2005-01-14 08:13:21 51°20.616 3°2.494 4.1 218 4.9 103040 95
2005-01-14 08:13:25 51°20.617 3°2.492 4.5 225 4.9 103040 94
2005-01-14 08:13:31 51°20.617 3°2.487 4.9 220 4.9 103040 94
2005-01-14 08:13:35 51°20.617 3°2.484 4.5 224 4.9 103040 94
2005-01-14 08:13:41 51°20.617 3°2.479 4.7 227 4.9 103040 94
2005-01-14 08:13:45 51°20.618 3°2.476 4.2 230 4.9 103040 94
2005-01-14 08:13:50 51°20.618 3°2.472 3.6 235 4.9 103040 94
2005-01-14 08:13:55 51°20.618 3°2.468 4.2 230 4.8 103050 94
2005-01-14 08:14:01 51°20.618 3°2.464 4.5 231 4.8 103050 94
2005-01-14 08:14:05 51°20.619 3°2.461 4.9 232 4.8 103050 94
2005-01-14 08:14:11 51°20.619 3°2.456 4.7 228 4.8 103050 94
2005-01-14 08:14:15 51°20.619 3°2.453 5 236 4.8 103040 94
2005-01-14 08:14:21 51°20.619 3°2.448 4.9 233 4.8 103040 94
2005-01-14 08:14:25 51°20.619 3°2.445 4.6 238 4.8 103040 94
2005-01-14 08:14:30 51°20.619 3°2.441 4.3 240 4.8 103040 94
2005-01-14 08:14:35 51°20.62 3°2.437 3.9 240 4.8 103040 94
2005-01-14 08:14:41 51°20.62 3°2.432 4.2 237 4.8 103040 94
2005-01-14 08:14:45 51°20.62 3°2.429 4.9 236 4.7 103040 94
2005-01-14 08:14:51 51°20.62 3°2.424 4.2 238 4.7 103040 94
2005-01-14 08:14:55 51°20.621 3°2.421 4.5 239 4.7 103040 94
2005-01-14 08:15:01 51°20.621 3°2.416 4.3 237 4.7 103040 94
2005-01-14 08:15:05 51°20.621 3°2.412 3.8 244 4.7 103040 94
2005-01-14 08:15:09 51°20.621 3°2.409 4.4 240 4.7 103040 94
2005-01-14 08:15:15 51°20.621 3°2.404 3.6 247 4.7 103040 94
2005-01-14 08:15:21 51°20.621 3°2.4 3.8 246 4.7 103040 94
2005-01-14 08:15:26 51°20.621 3°2.395 3.2 248 4.6 103040 94
2005-01-14 08:15:31 51°20.622 3°2.391 3.7   4.6 103040 94
2005-01-14 08:15:35 51°20.622 3°2.388 3.6 250 4.6 103040 94
2005-01-14 08:15:41 51°20.622 3°2.383 2.7 253 4.6 103040 94
2005-01-14 08:15:45 51°20.622 3°2.379 3.5 249 4.6 103040 94
2005-01-14 08:15:50 51°20.622 3°2.375 3.5 246 4.6 103040 94
2005-01-14 08:15:55 51°20.622 3°2.371 2.8 255 4.6 103040 94
2005-01-14 08:16:01 51°20.622 3°2.366 3 249 4.6 103040 94
2005-01-14 08:16:05 51°20.622 3°2.363 2.8 251 4.6 103040 94
2005-01-14 08:16:10 51°20.622 3°2.359 2.5 253 4.6 103040 94
2005-01-14 08:16:15 51°20.622 3°2.354 2.5 255 4.5 103050 94
2005-01-14 08:16:21 51°20.622 3°2.349 3 254 4.5 103050 94
2005-01-14 08:16:25 51°20.622 3°2.346 2.7 255 4.5 103040 94
2005-01-14 08:16:31 51°20.622 3°2.341 2.7 254 4.5 103040 94
2005-01-14 08:16:36 51°20.622 3°2.337 3.2 250 4.5 103040 94
2005-01-14 08:16:41 51°20.622 3°2.332 2.9 255 4.5 103040 94
2005-01-14 08:16:45 51°20.623 3°2.33 2.7 256 4.5 103040 94
2005-01-14 08:16:51 51°20.622 3°2.324 2.6 252 4.5 103040 94
2005-01-14 08:16:55 51°20.622 3°2.321 3.4 257 4.5 103040 95
2005-01-14 08:17:01 51°20.622 3°2.316 2.8 257 4.5 103040 95
2005-01-14 08:17:05 51°20.622 3°2.312 2.8 252 4.5 103040 95
2005-01-14 08:17:10 51°20.622 3°2.308 3.1 257 4.5 103040 95
2005-01-14 08:17:15 51°20.622 3°2.304 3.4 256 4.5 103050 95
2005-01-14 08:17:21 51°20.622 3°2.299 4.1 260 4.5 103050 95
2005-01-14 08:17:26 51°20.622 3°2.295 2.8 253 4.4 103040 95
2005-01-14 08:17:31 51°20.621 3°2.291 4.8 267 4.4 103040 95
2005-01-14 08:17:35 51°20.622 3°2.287 4.3 263 4.5 103040 95
2005-01-14 08:17:41 51°20.621 3°2.283 4.1 262 4.5 103040 95
2005-01-14 08:17:46 51°20.621 3°2.278 3.7 258 4.4 103040 95
2005-01-14 08:17:51 51°20.621 3°2.274 4.6 260 4.4 103040 95
2005-01-14 08:17:55 51°20.621 3°2.271 4.6 261 4.4 103040 95
2005-01-14 08:18:01 51°20.621 3°2.266 3.8 259 4.4 103040 95
2005-01-14 08:18:05 51°20.62 3°2.263 4.4 265 4.4 103040 95
2005-01-14 08:18:09 51°20.62 3°2.26 4.1 266 4.4 103040 95
2005-01-14 08:18:15 51°20.62 3°2.255 4.5 264 4.4 103040 95
2005-01-14 08:18:21 51°20.62 3°2.25 5.1 266 4.4 103040 95
2005-01-14 08:18:25 51°20.62 3°2.247 4.6 266 4.4 103040 95
2005-01-14 08:18:30 51°20.62 3°2.243 4.1 263 4.4 103040 95
2005-01-14 08:18:35 51°20.619 3°2.239 4.4 266 4.4 103040 95
2005-01-14 08:18:41 51°20.619 3°2.234 4.6 271 4.4 103040 95
2005-01-14 08:18:45 51°20.619 3°2.231 4.7 270 4.4 103040 95
2005-01-14 08:18:50 51°20.619 3°2.226 5.1 269 4.4 103040 95
2005-01-14 08:18:55 51°20.619 3°2.222 4.3 269 4.3 103040 95
2005-01-14 08:19:00 51°20.619 3°2.218 5.4 272 4.3 103040 95
2005-01-14 08:19:05 51°20.618 3°2.214 5.5 268 4.3 103040 95
2005-01-14 08:19:11 51°20.618 3°2.209 5.3 270 4.3 103040 95
2005-01-14 08:19:15 51°20.618 3°2.206 4.4 274 4.3 103040 95
2005-01-14 08:19:21 51°20.618 3°2.201 5.3 275 4.3 103040 95
2005-01-14 08:19:25 51°20.618 3°2.198 4.9 273 4.3 103040 95
2005-01-14 08:19:31 51°20.617 3°2.192 4.3 272 4.3 103040 95
2005-01-14 08:19:35 51°20.617 3°2.188 5.1 268 4.3 103050 95
2005-01-14 08:19:41 51°20.617 3°2.181 3.9 269 4.3 103050 95
2005-01-14 08:19:45 51°20.617 3°2.177 4.3 266 4.3 103040 95
2005-01-14 08:19:51 51°20.617 3°2.17 3.8 262 4.3 103040 95
2005-01-14 08:19:55 51°20.617 3°2.165 5 267 4.3 103040 95
2005-01-14 08:20:01 51°20.617 3°2.158 4.2 262 4.3 103040 95
2005-01-14 08:20:05 51°20.617 3°2.152 3.7 257 4.3 103050 95
2005-01-14 08:20:10 51°20.617 3°2.146 4.1 262 4.3 103050 95
2005-01-14 08:20:15 51°20.618 3°2.14 3 257 4.3 103040 96
2005-01-14 08:20:21 51°20.618 3°2.131 3.5 256 4.3 103040 96
2005-01-14 08:20:25 51°20.619 3°2.126 3.8 258 4.3 103040 96
2005-01-14 08:20:29 51°20.619 3°2.121 3 256 4.3 103040 96
2005-01-14 08:20:35 51°20.62 3°2.112 3.5 245 4.3 103040 96
2005-01-14 08:20:41 51°20.621 3°2.104 3.4 240 4.3 103040 96
2005-01-14 08:20:45 51°20.622 3°2.099 3.2 246 4.3 103040 96
2005-01-14 08:20:50 51°20.624 3°2.092 3.2 240 4.3 103040 96
2005-01-14 08:20:56 51°20.625 3°2.084 3.2 239 4.3 103050 96
2005-01-14 08:21:01 51°20.627 3°2.077 3.4 241 4.3 103050 96
2005-01-14 08:21:06 51°20.629 3°2.07 2.6 242 4.3 103050 96
2005-01-14 08:21:11 51°20.631 3°2.064 3.1 234 4.3 103050 96
2005-01-14 08:21:15 51°20.633 3°2.059 2.9 232 4.3 103050 96
2005-01-14 08:21:21 51°20.636 3°2.051 2.9 227 4.3 103050 96
2005-01-14 08:21:25 51°20.639 3°2.047 2.6 215 4.3 103050 96
2005-01-14 08:21:30 51°20.642 3°2.041 2.2 207 4.3 103050 96
2005-01-14 08:21:35 51°20.646 3°2.036 1.7 200 4.3 103050 96
2005-01-14 08:21:41 51°20.65 3°2.03 1.5 191 4.3 103050 96
2005-01-14 08:21:46 51°20.654 3°2.026 0.8 140 4.3 103050 96
2005-01-14 08:21:49 51°20.657 3°2.024 1.3 154 4.3 103050 96
2005-01-14 08:21:55 51°20.662 3°2.021 2.3 135 4.3 103050 96
2005-01-14 08:22:01 51°20.667 3°2.018 2.5 148 4.3 103050 96
2005-01-14 08:22:05 51°20.67 3°2.017 2.4 135 4.3 103050 96
2005-01-14 08:22:10 51°20.675 3°2.016 2.9 128 4.3 103050 96
2005-01-14 08:22:15 51°20.679 3°2.016 3.3 119 4.4 103050 97
2005-01-14 08:22:21 51°20.684 3°2.018 3 118 4.4 103050 97
2005-01-14 08:22:25 51°20.686 3°2.02 3.5 111 4.4 103050 97
2005-01-14 08:22:30 51°20.69 3°2.022 3.5 105 4.4 103050 97
2005-01-14 08:22:35 51°20.693 3°2.025 3.8 101 4.4 103050 97
2005-01-14 08:22:41 51°20.696 3°2.029 4.1 94 4.4 103050 97
2005-01-14 08:22:45 51°20.697 3°2.032 4.4 87 4.4 103050 97
2005-01-14 08:22:51 51°20.7 3°2.037 4.3 87 4.4 103050 97
2005-01-14 08:22:55 51°20.701 3°2.041 4.1 81 4.4 103050 97
2005-01-14 08:23:01 51°20.703 3°2.047 4.2 82 4.4 103050 97
2005-01-14 08:23:05 51°20.704 3°2.052 2.9 75 4.3 103050 96
2005-01-14 08:23:11 51°20.705 3°2.059 4.5 80 4.3 103050 96
2005-01-14 08:23:15 51°20.706 3°2.064 4.1 78 4.3 103060 96
2005-01-14 08:23:21 51°20.708 3°2.072 3.7 77 4.3 103060 96
2005-01-14 08:23:25 51°20.709 3°2.077 3.6 69 4.3 103050 96
2005-01-14 08:23:31 51°20.711 3°2.086 4.4 79 4.3 103050 96
2005-01-14 08:23:35 51°20.713 3°2.091 3.5 78 4.3 103040 96
2005-01-14 08:23:41 51°20.715 3°2.1 3.9 76 4.3 103040 96
2005-01-14 08:23:45 51°20.717 3°2.106 4.3 78 4.3 103050 96
2005-01-14 08:23:50 51°20.719 3°2.113 4.6 81 4.3 103050 96
2005-01-14 08:23:55 51°20.721 3°2.12 4.1 79 4.3 103050 97
2005-01-14 08:24:01 51°20.725 3°2.129 4.1 81 4.3 103050 97
2005-01-14 08:24:05 51°20.727 3°2.135 5 85 4.3 103050 97
2005-01-14 08:24:11 51°20.73 3°2.143 4.5 84 4.3 103050 97
2005-01-14 08:24:15 51°20.733 3°2.149 4.7 86 4.3 103030 97
2005-01-14 08:24:21 51°20.737 3°2.158 3.9 81 4.3 103030 97
2005-01-14 08:24:25 51°20.739 3°2.164 4.8 80 4.3 103040 97
2005-01-14 08:24:30 51°20.743 3°2.17 3.6   4.3 103040 97
2005-01-14 08:24:35 51°20.745 3°2.178 4.5 83 4.3 103050 97
2005-01-14 08:24:41 51°20.749 3°2.186 4.2 81 4.3 103050 97
2005-01-14 08:24:45 51°20.751 3°2.192 5.7 82 4.3 103040 97
2005-01-14 08:24:50 51°20.754 3°2.198 4.8 83 4.3 103040 97
2005-01-14 08:24:55 51°20.756 3°2.205 4.6 83 4.3 103050 97
2005-01-14 08:25:01 51°20.76 3°2.213 4.4 82 4.3 103050 97
2005-01-14 08:25:05 51°20.761 3°2.219 4 79 4.3 103050 97
2005-01-14 08:25:09 51°20.763 3°2.223 4.2 77 4.3 103050 97
2005-01-14 08:25:15 51°20.766 3°2.232 4.4 79 4.3 103060 97
2005-01-14 08:25:21 51°20.768 3°2.239 4.2 79 4.3 103060 97
2005-01-14 08:25:25 51°20.769 3°2.245 3.9 75 4.3 103060 97
2005-01-14 08:25:30 51°20.771 3°2.252 5.2 80 4.3 103060 97
2005-01-14 08:25:35 51°20.772 3°2.258 4 76 4.3 103050 97
2005-01-14 08:25:41 51°20.774 3°2.266 4.5 72 4.3 103050 97
2005-01-14 08:25:46 51°20.775 3°2.273 4.6 80 4.2 103050 97
2005-01-14 08:25:50 51°20.776 3°2.278 3.8 71 4.2 103050 97
2005-01-14 08:25:55 51°20.776 3°2.285 4.8 75 4.2 103050 97
2005-01-14 08:26:01 51°20.778 3°2.293 4.8 80 4.2 103050 97
2005-01-14 08:26:05 51°20.778 3°2.298 4.2 78 4.2 103050 97
2005-01-14 08:26:09 51°20.779 3°2.304 3.8 79 4.2 103050 97
2005-01-14 08:26:15 51°20.781 3°2.311 4.9 74 4.2 103050 97
2005-01-14 08:26:21 51°20.781 3°2.319 4.2 78 4.2 103050 97
2005-01-14 08:26:25 51°20.783 3°2.324 4.5 79 4.2 103050 97
2005-01-14 08:26:30 51°20.784 3°2.33 3.5 74 4.2 103050 97
2005-01-14 08:26:35 51°20.784 3°2.337 4.8 81 4.2 103040 97
2005-01-14 08:26:41 51°20.786 3°2.345 5.1 82 4.2 103040 97
2005-01-14 08:26:45 51°20.787 3°2.349 4.4 80 4.2 103020 97
2005-01-14 08:26:51 51°20.788 3°2.357 4 75 4.2 103020 97
2005-01-14 08:26:55 51°20.79 3°2.362 4.4 75 4.2 103020 97
2005-01-14 08:27:01 51°20.791 3°2.37 4.3 67 4.2 103020 97
2005-01-14 08:27:05 51°20.792 3°2.375 4.9 75 4.2 103020 97
2005-01-14 08:27:09 51°20.793 3°2.38 4.1 74 4.2 103020 97
2005-01-14 08:27:15 51°20.794 3°2.387 4.7 78 4.3 103040 97
2005-01-14 08:27:21 51°20.796 3°2.395 3.5 76 4.3 103040 97
2005-01-14 08:27:25 51°20.797 3°2.4 4.3 62 4.3 103020 98
2005-01-14 08:27:30 51°20.798 3°2.406 4.1 64 4.3 103020 98
2005-01-14 08:27:36 51°20.799 3°2.413 4.6 71 4.3 103030 98
2005-01-14 08:27:41 51°20.8 3°2.42 4.2 69 4.3 103030 98
2005-01-14 08:27:45 51°20.801 3°2.425 4.6 72 4.3 103030 98
2005-01-14 08:27:51 51°20.803 3°2.432 4 68 4.3 103030 98
2005-01-14 08:27:55 51°20.803 3°2.437 4.5 67 4.3 103030 98
2005-01-14 08:28:01 51°20.805 3°2.444 3.5 74 4.3 103030 98
2005-01-14 08:28:06 51°20.807 3°2.45 4.1 70 4.4 103020 98
2005-01-14 08:28:11 51°20.808 3°2.456 3.8 75 4.4 103020 98
2005-01-14 08:28:15 51°20.809 3°2.461 4.5 72 4.4 103030 98
2005-01-14 08:28:21 51°20.811 3°2.468 4 75 4.4 103030 98
2005-01-14 08:28:26 51°20.812 3°2.474 4 71 4.3 103030 98
2005-01-14 08:28:31 51°20.814 3°2.481 4.1 79 4.3 103030 98
2005-01-14 08:28:36 51°20.815 3°2.486 4 76 4.4 103020 98
2005-01-14 08:28:41 51°20.817 3°2.492 4.1 77 4.4 103020 98
2005-01-14 08:28:46 51°20.818 3°2.498 3.6 74 4.3 103030 98
2005-01-14 08:28:50 51°20.819 3°2.503 4.3 80 4.3 103030 98
2005-01-14 08:28:55 51°20.821 3°2.509 3.7 79 4.3 103030 98
2005-01-14 08:29:01 51°20.822 3°2.516 4 77 4.3 103030 98
2005-01-14 08:29:05 51°20.824 3°2.52 3.5 75 4.3 103030 98
2005-01-14 08:29:11 51°20.825 3°2.528 3.6 75 4.3 103030 98
2005-01-14 08:29:15 51°20.826 3°2.533 4.2 82 4.3 103030 98
2005-01-14 08:29:21 51°20.827 3°2.54 4.3 80 4.3 103030 98
2005-01-14 08:29:26 51°20.829 3°2.546 3.6 68 4.3 103020 98
2005-01-14 08:29:30 51°20.83 3°2.551 4.5 82 4.3 103020 98
2005-01-14 08:29:35 51°20.831 3°2.557 3.4 81 4.3 103030 98
2005-01-14 08:29:41 51°20.832 3°2.564 4 75 4.3 103030 98
2005-01-14 08:29:45 51°20.833 3°2.569 4.4 68 4.3 103030 98
2005-01-14 08:29:50 51°20.834 3°2.575 4.5 69 4.3 103030 98
2005-01-14 08:29:55 51°20.836 3°2.581 4.1 70 4.3 103030 98
2005-01-14 08:30:01 51°20.837 3°2.589 4.5 69 4.3 103030 98
2005-01-14 08:30:05 51°20.838 3°2.593 4.3 76 4.2 103050 98
2005-01-14 08:30:09 51°20.84 3°2.598 3.9 73 4.2 103050 98
2005-01-14 08:30:15 51°20.841 3°2.605 4 70 4.2 103030 98
2005-01-14 08:30:21 51°20.843 3°2.613 4.5 75 4.2 103030 98
2005-01-14 08:30:26 51°20.844 3°2.619 3.9 70 4.2 103040 98
2005-01-14 08:30:30 51°20.845 3°2.623 3.9 68 4.2 103040 98
2005-01-14 08:30:35 51°20.846 3°2.629 4.2 69 4.2 103030 97
2005-01-14 08:30:41 51°20.848 3°2.637 4.3 75 4.2 103030 97
2005-01-14 08:30:45 51°20.849 3°2.641 3.6 74 4.1 103030 97
2005-01-14 08:30:51 51°20.851 3°2.648 4.2 64 4.1 103030 97
2005-01-14 08:30:55 51°20.852 3°2.653 4.1 68 4.1 103020 97
2005-01-14 08:31:01 51°20.854 3°2.66 4 67 4.1 103020 97
2005-01-14 08:31:06 51°20.855 3°2.666 4.2 74 4.1 103040 97
2005-01-14 08:31:10 51°20.856 3°2.671 3.4 77 4.1 103040 97
2005-01-14 08:31:15 51°20.857 3°2.677 4.2 69 4.1 103020 97
2005-01-14 08:31:21 51°20.859 3°2.684 3.9 73 4.1 103020 97
2005-01-14 08:31:25 51°20.86 3°2.688 4.1 72 4 103030 98
2005-01-14 08:31:31 51°20.862 3°2.695 4.1 69 4 103030 98
2005-01-14 08:31:35 51°20.862 3°2.7 4.3 71 4 103050 97
2005-01-14 08:31:41 51°20.864 3°2.707 4.2 67 4 103050 97
2005-01-14 08:31:45 51°20.865 3°2.712 4 71 4 103030 97
2005-01-14 08:31:50 51°20.867 3°2.718 4.2 66 4 103030 97
2005-01-14 08:31:55 51°20.868 3°2.724 4.3 68 3.9 103030 98
2005-01-14 08:32:01 51°20.87 3°2.731 4.1 72 3.9 103030 98
2005-01-14 08:32:05 51°20.871 3°2.735 4 70 3.9 103030 98
2005-01-14 08:32:11 51°20.873 3°2.742 4 67 3.9 103030 98
2005-01-14 08:32:15 51°20.874 3°2.747 4.3 79 3.9 103030 98
2005-01-14 08:32:21 51°20.876 3°2.754 3.7 72 3.9 103030 98
2005-01-14 08:32:25 51°20.877 3°2.759 4.3 76 3.9 103070 98
2005-01-14 08:32:31 51°20.878 3°2.766 4.1 77 3.9 103070 98
2005-01-14 08:32:36 51°20.88 3°2.772 3.6 76 3.9 103020 98
2005-01-14 08:32:41 51°20.882 3°2.778 3.7 76 3.9 103020 98
2005-01-14 08:32:45 51°20.883 3°2.782 4.4 70 3.8 103030 98